| time (UTC) | temp F | wind direction | speed MPH | gust MPH | rain 1hr in | rain 24hr in | rain mn in | humidity % | barometer mb |
| 20260504021513 | 41 | 248 | 0.0 | 1.0 | 0.00 | 0.00 | 0.00 | 57 | 1008.2 |
| 20260504021013 | 42 | 242 | 0.0 | 1.0 | 0.00 | 0.00 | 0.00 | 55 | 1008.2 |
| 20260504020513 | 42 | 244 | 0.0 | 1.0 | 0.00 | 0.00 | 0.00 | 54 | 1008.2 |
| 20260504020014 | 42 | 249 | 0.0 | 1.0 | 0.00 | 0.00 | 0.00 | 52 | 1008.2 |
| 20260504014514 | 42 | 243 | 0.0 | 0.0 | 0.00 | 0.00 | 0.00 | 52 | 1008.2 |
| 20260504014013 | 42 | 240 | 0.0 | 0.0 | 0.00 | 0.00 | 0.00 | 52 | 1008.1 |
| 20260504013513 | 42 | 229 | 0.0 | 0.0 | 0.00 | 0.00 | 0.00 | 53 | 1008.1 |
| 20260504013014 | 43 | 209 | 0.0 | 0.0 | 0.00 | 0.00 | 0.00 | 53 | 1008.1 |
| 20260504012513 | 43 | 249 | 0.0 | 0.0 | 0.00 | 0.00 | 0.00 | 50 | 1008.1 |
| 20260504012013 | 43 | 249 | 0.0 | 0.0 | 0.00 | 0.00 | 0.00 | 49 | 1008.0 |
| 20260504011513 | 43 | 249 | 0.0 | 0.0 | 0.00 | 0.00 | 0.00 | 50 | 1008.0 |
| 20260504011014 | 43 | 258 | 0.0 | 0.0 | 0.00 | 0.00 | 0.00 | 48 | 1007.8 |
| 20260504010513 | 43 | 255 | 0.0 | 0.0 | 0.00 | 0.00 | 0.00 | 47 | 1007.7 |
| 20260504010013 | 44 | 235 | 0.0 | 1.0 | 0.00 | 0.00 | 0.00 | 49 | 1007.7 |
| 20260504005013 | 45 | 249 | 0.0 | 0.0 | 0.00 | 0.00 | 0.00 | 46 | 1007.6 |
| 20260504004513 | 45 | 295 | 0.0 | 0.0 | 0.00 | 0.00 | 0.00 | 45 | 1007.6 |
| 20260504004013 | 45 | 218 | 0.0 | 0.0 | 0.00 | 0.00 | 0.00 | 46 | 1007.6 |
| 20260504003513 | 46 | 230 | 0.0 | 0.0 | 0.00 | 0.00 | 0.00 | 44 | 1007.5 |
| 20260504003013 | 46 | 247 | 0.0 | 1.0 | 0.00 | 0.00 | 0.00 | 42 | 1007.5 |
| 20260504002513 | 47 | 266 | 1.0 | 1.0 | 0.00 | 0.00 | 0.00 | 41 | 1007.3 |
| 20260504002013 | 47 | 273 | 1.0 | 2.0 | 0.00 | 0.00 | 0.00 | 41 | 1007.3 |
| 20260504001513 | 48 | 257 | 2.0 | 3.0 | 0.00 | 0.00 | 0.00 | 39 | 1007.3 |
| 20260504000513 | 48 | 264 | 2.0 | 3.0 | 0.00 | 0.00 | 0.00 | 39 | 1007.1 |
| 20260504000013 | 48 | 254 | 1.0 | 3.0 | 0.00 | 0.00 | 0.00 | 41 | 1007.1 |
| 20260503235513 | 48 | 238 | 2.0 | 2.0 | 0.00 | 0.00 | 0.00 | 40 | 1007.1 |
| 20260503235012 | 49 | 255 | 1.0 | 3.0 | 0.00 | 0.00 | 0.00 | 38 | 1007.1 |
| 20260503234513 | 49 | 254 | 2.0 | 3.0 | 0.00 | 0.00 | 0.00 | 37 | 1007.0 |
| 20260503233513 | 50 | 305 | 2.0 | 5.0 | 0.00 | 0.00 | 0.00 | 35 | 1007.0 |
| 20260503233012 | 50 | 218 | 2.0 | 5.0 | 0.00 | 0.00 | 0.00 | 35 | 1006.9 |
| 20260503232513 | 50 | 255 | 2.0 | 6.0 | 0.00 | 0.00 | 0.00 | 35 | 1006.7 |
| 20260503232013 | 50 | 300 | 2.0 | 7.0 | 0.00 | 0.00 | 0.00 | 34 | 1006.7 |
| 20260503231513 | 50 | 313 | 2.0 | 5.0 | 0.00 | 0.00 | 0.00 | 35 | 1006.6 |
| 20260503231013 | 50 | 257 | 2.0 | 7.0 | 0.00 | 0.00 | 0.00 | 34 | 1006.6 |
| 20260503230512 | 50 | 329 | 2.0 | 7.0 | 0.00 | 0.00 | 0.00 | 34 | 1006.6 |
| 20260503230013 | 50 | 251 | 3.0 | 15.0 | 0.00 | 0.00 | 0.00 | 34 | 1006.6 |
| 20260503225513 | 50 | 290 | 1.0 | 5.0 | 0.00 | 0.00 | 0.00 | 34 | 1006.6 |
| 20260503224513 | 51 | 248 | 5.0 | 10.0 | 0.00 | 0.00 | 0.00 | 33 | 1006.5 |
| 20260503224012 | 51 | 258 | 5.0 | 8.0 | 0.00 | 0.00 | 0.00 | 33 | 1006.2 |
| 20260503222513 | 52 | 287 | 3.0 | 7.0 | 0.00 | 0.00 | 0.00 | 34 | 1006.2 |
| 20260503222013 | 51 | 105 | 2.0 | 10.0 | 0.00 | 0.00 | 0.00 | 35 | 1006.1 |
| 20260503221513 | 51 | 268 | 2.0 | 7.0 | 0.00 | 0.00 | 0.00 | 33 | 1006.0 |
| 20260503220512 | 51 | 290 | 3.0 | 9.0 | 0.00 | 0.02 | 0.00 | 34 | 1006.0 |
| 20260503220013 | 51 | 326 | 2.0 | 9.0 | 0.00 | 0.02 | 0.00 | 34 | 1006.0 |
| 20260503215513 | 51 | 262 | 2.0 | 9.0 | 0.00 | 0.02 | 0.00 | 34 | 1005.9 |
| 20260503215012 | 51 | 345 | 4.0 | 12.0 | 0.00 | 0.02 | 0.00 | 35 | 1005.8 |
| 20260503214513 | 51 | 258 | 4.0 | 10.0 | 0.00 | 0.02 | 0.00 | 34 | 1005.7 |
| 20260503214012 | 52 | 259 | 3.0 | 7.0 | 0.00 | 0.02 | 0.00 | 33 | 1005.5 |
| 20260503213513 | 52 | 268 | 2.0 | 12.0 | 0.00 | 0.02 | 0.00 | 32 | 1005.6 |
| 20260503213012 | 52 | 266 | 3.0 | 6.0 | 0.00 | 0.02 | 0.00 | 34 | 1005.4 |
| 20260503212012 | 51 | 321 | 3.0 | 10.0 | 0.00 | 0.02 | 0.00 | 34 | 1005.3 |
| 20260503211513 | 51 | 281 | 5.0 | 10.0 | 0.00 | 0.02 | 0.00 | 35 | 1005.1 |
| 20260503211012 | 51 | 269 | 6.0 | 10.0 | 0.00 | 0.02 | 0.00 | 35 | 1005.0 |
| 20260503210512 | 51 | 255 | 5.0 | 7.0 | 0.00 | 0.02 | 0.00 | 35 | 1004.9 |
| 20260503205512 | 51 | 238 | 3.0 | 8.0 | 0.00 | 0.02 | 0.00 | 35 | 1004.9 |
| 20260503205013 | 52 | 238 | 5.0 | 12.0 | 0.00 | 0.02 | 0.00 | 35 | 1004.8 |
| 20260503204512 | 52 | 256 | 3.0 | 9.0 | 0.00 | 0.02 | 0.00 | 34 | 1004.8 |
| 20260503204013 | 52 | 260 | 5.0 | 10.0 | 0.00 | 0.02 | 0.00 | 34 | 1004.6 |
| 20260503203012 | 53 | 272 | 2.0 | 7.0 | 0.00 | 0.02 | 0.00 | 32 | 1004.5 |
| 20260503202512 | 53 | 292 | 3.0 | 10.0 | 0.00 | 0.02 | 0.00 | 33 | 1004.5 |
| 20260503202012 | 52 | 191 | 3.0 | 10.0 | 0.00 | 0.02 | 0.00 | 35 | 1004.5 |
| 20260503201012 | 53 | 284 | 4.0 | 9.0 | 0.00 | 0.02 | 0.00 | 34 | 1004.5 |
| 20260503200513 | 52 | 266 | 5.0 | 9.0 | 0.00 | 0.02 | 0.00 | 35 | 1004.6 |
| 20260503200012 | 52 | 261 | 5.0 | 9.0 | 0.00 | 0.02 | 0.00 | 37 | 1004.5 |
| 20260503195513 | 52 | 267 | 4.0 | 8.0 | 0.00 | 0.02 | 0.00 | 35 | 1004.5 |
| 20260503195012 | 52 | 326 | 6.0 | 12.0 | 0.00 | 0.02 | 0.00 | 37 | 1004.4 |
| 20260503194512 | 52 | 235 | 2.0 | 10.0 | 0.00 | 0.02 | 0.00 | 37 | 1004.4 |
| 20260503194012 | 52 | 271 | 3.0 | 9.0 | 0.00 | 0.02 | 0.00 | 36 | 1004.6 |
| 20260503193513 | 52 | 246 | 4.0 | 13.0 | 0.00 | 0.02 | 0.00 | 35 | 1004.4 |
| 20260503193012 | 52 | 220 | 5.0 | 8.0 | 0.00 | 0.02 | 0.00 | 36 | 1004.5 |
| 20260503191512 | 51 | 152 | 3.0 | 7.0 | 0.00 | 0.02 | 0.00 | 38 | 1004.6 |
| 20260503191013 | 52 | 266 | 5.0 | 9.0 | 0.00 | 0.02 | 0.00 | 37 | 1004.7 |
| 20260503190512 | 52 | 257 | 2.0 | 6.0 | 0.00 | 0.02 | 0.00 | 38 | 1004.7 |
| 20260503190013 | 52 | 237 | 3.0 | 9.0 | 0.00 | 0.02 | 0.00 | 36 | 1004.7 |
| 20260503185512 | 52 | 200 | 1.0 | 10.0 | 0.00 | 0.02 | 0.00 | 35 | 1004.5 |
| 20260503185012 | 51 | 203 | 2.0 | 8.0 | 0.00 | 0.02 | 0.00 | 38 | 1004.7 |
| 20260503184512 | 51 | 271 | 2.0 | 13.0 | 0.00 | 0.02 | 0.00 | 36 | 1004.7 |
| 20260503184012 | 50 | 314 | 2.0 | 8.0 | 0.00 | 0.02 | 0.00 | 38 | 1004.7 |
| 20260503183513 | 50 | 287 | 6.0 | 10.0 | 0.00 | 0.02 | 0.00 | 37 | 1004.7 |
| 20260503183012 | 50 | 273 | 5.0 | 9.0 | 0.00 | 0.02 | 0.00 | 38 | 1004.7 |
| 20260503182512 | 51 | 254 | 6.0 | 10.0 | 0.00 | 0.02 | 0.00 | 39 | 1004.6 |
| 20260503182012 | 51 | 272 | 4.0 | 9.0 | 0.00 | 0.02 | 0.00 | 39 | 1004.7 |
| 20260503181512 | 52 | 255 | 2.0 | 6.0 | 0.00 | 0.02 | 0.00 | 39 | 1004.4 |
| 20260503181012 | 53 | 236 | 1.0 | 8.0 | 0.00 | 0.02 | 0.00 | 40 | 1004.4 |
| 20260503180012 | 51 | 34 | 4.0 | 8.0 | 0.00 | 0.02 | 0.00 | 42 | 1004.4 |
| 20260503175512 | 51 | 353 | 3.0 | 12.0 | 0.00 | 0.02 | 0.00 | 41 | 1004.6 |
| 20260503175012 | 50 | 226 | 5.0 | 13.0 | 0.00 | 0.02 | 0.00 | 42 | 1004.5 |
| 20260503174512 | 49 | 245 | 4.0 | 12.0 | 0.00 | 0.02 | 0.00 | 43 | 1004.7 |
| 20260503174012 | 49 | 254 | 5.0 | 9.0 | 0.00 | 0.02 | 0.00 | 44 | 1004.5 |
| 20260503173513 | 49 | 248 | 4.0 | 10.0 | 0.00 | 0.02 | 0.00 | 44 | 1004.5 |
| 20260503173012 | 49 | 317 | 2.0 | 10.0 | 0.00 | 0.02 | 0.00 | 43 | 1004.5 |
| 20260503172012 | 50 | 283 | 2.0 | 6.0 | 0.00 | 0.02 | 0.00 | 43 | 1004.5 |
| 20260503171012 | 50 | 221 | 2.0 | 8.0 | 0.00 | 0.02 | 0.00 | 46 | 1004.6 |
| 20260503170512 | 50 | 277 | 5.0 | 9.0 | 0.00 | 0.02 | 0.00 | 41 | 1004.7 |
| 20260503151011 | 45 | 269 | 2.0 | 12.0 | 0.00 | 0.02 | 0.00 | 66 | 1004.9 |
| 20260503150512 | 45 | 229 | 4.0 | 9.0 | 0.00 | 0.02 | 0.00 | 67 | 1004.8 |
| 20260503130511 | 44 | 291 | 2.0 | 7.0 | 0.00 | 0.04 | 0.00 | 71 | 1004.7 |
| 20260503090510 | 42 | 268 | 2.0 | 6.0 | 0.00 | 0.06 | 0.00 | 73 | 1005.7 |
| 20260503081511 | 43 | 260 | 1.0 | 3.0 | 0.00 | 0.06 | 0.00 | 71 | 1005.8 |
| 20260503081011 | 43 | 296 | 2.0 | 5.0 | 0.00 | 0.06 | 0.00 | 71 | 1006.1 |
| 20260503080510 | 43 | 280 | 1.0 | 5.0 | 0.00 | 0.06 | 0.00 | 71 | 1006.2 |
| 20260503072512 | 44 | 282 | 0.0 | 2.0 | 0.00 | 0.06 | 0.00 | 69 | 1006.6 |
| 20260503072010 | 44 | 255 | 1.0 | 3.0 | 0.00 | 0.06 | 0.00 | 69 | 1006.6 |
| 20260503071011 | 44 | 277 | 1.0 | 3.0 | 0.00 | 0.06 | 0.00 | 67 | 1006.8 |
| 20260503070511 | 44 | 274 | 1.0 | 5.0 | 0.00 | 0.06 | 0.00 | 66 | 1006.8 |
| 20260503055010 | 45 | 268 | 1.0 | 5.0 | 0.00 | 0.06 | 0.00 | 61 | 1007.6 |
| 20260503054510 | 45 | 258 | 3.0 | 5.0 | 0.00 | 0.06 | 0.00 | 64 | 1008.0 |
| 20260503054010 | 45 | 259 | 2.0 | 5.0 | 0.00 | 0.06 | 0.00 | 61 | 1008.1 |
| 20260503053510 | 45 | 273 | 2.0 | 6.0 | 0.00 | 0.06 | 0.00 | 58 | 1008.1 |
| 20260503053010 | 45 | 295 | 0.0 | 6.0 | 0.00 | 0.06 | 0.00 | 59 | 1008.0 |
| 20260503052511 | 45 | 13 | 2.0 | 5.0 | 0.00 | 0.06 | 0.00 | 61 | 1007.8 |
| 20260503052010 | 46 | 251 | 2.0 | 6.0 | 0.00 | 0.06 | 0.00 | 61 | 1008.0 |
| 20260503051510 | 46 | 259 | 2.0 | 3.0 | 0.00 | 0.06 | 0.00 | 61 | 1008.1 |
| 20260503045010 | 46 | 340 | 2.0 | 5.0 | 0.00 | 0.06 | 0.00 | 59 | 1008.2 |
| 20260503044510 | 46 | 257 | 1.0 | 2.0 | 0.00 | 0.06 | 0.00 | 62 | 1008.2 |
| 20260503044009 | 46 | 166 | 2.0 | 7.0 | 0.00 | 0.06 | 0.00 | 63 | 1008.2 |
| 20260503043510 | 46 | 272 | 1.0 | 5.0 | 0.00 | 0.06 | 0.00 | 63 | 1008.2 |
| 20260503043010 | 46 | 290 | 2.0 | 6.0 | 0.00 | 0.06 | 0.00 | 65 | 1008.4 |
| 20260503042510 | 46 | 278 | 2.0 | 5.0 | 0.00 | 0.06 | 0.00 | 67 | 1008.2 |
| 20260503041509 | 47 | 261 | 2.0 | 3.0 | 0.00 | 0.06 | 0.00 | 75 | 1008.6 |
| 20260503041010 | 47 | 266 | 2.0 | 5.0 | 0.00 | 0.06 | 0.00 | 78 | 1008.6 |
| 20260503040510 | 47 | 358 | 2.0 | 5.0 | 0.00 | 0.06 | 0.00 | 80 | 1008.8 |
| 20260503040010 | 47 | 286 | 2.0 | 5.0 | 0.00 | 0.06 | 0.00 | 82 | 1008.8 |
| 20260503035510 | 47 | 265 | 2.0 | 5.0 | 0.00 | 0.06 | 0.06 | 84 | 1008.9 |
| 20260503035010 | 47 | 308 | 1.0 | 3.0 | 0.00 | 0.06 | 0.06 | 81 | 1008.8 |
| 20260503034510 | 47 | 300 | 2.0 | 5.0 | 0.00 | 0.06 | 0.06 | 78 | 1008.8 |
| 20260503033010 | 47 | 263 | 2.0 | 6.0 | 0.00 | 0.06 | 0.06 | 79 | 1008.8 |
| 20260503032510 | 47 | 228 | 1.0 | 3.0 | 0.00 | 0.06 | 0.06 | 85 | 1008.8 |
| 20260503032010 | 47 | 42 | 1.0 | 5.0 | 0.00 | 0.06 | 0.06 | 96 | 1008.7 |
| 20260503031510 | 47 | 275 | 1.0 | 2.0 | 0.00 | 0.06 | 0.06 | 99 | 1008.9 |
| 20260503031010 | 47 | 134 | 0.0 | 2.0 | 0.00 | 0.06 | 0.06 | 100 | 1008.9 |
| 20260503030010 | 47 | 302 | 1.0 | 2.0 | 0.00 | 0.06 | 0.06 | 100 | 1009.0 |
| 20260503025510 | 47 | 247 | 1.0 | 5.0 | 0.00 | 0.06 | 0.06 | 100 | 1009.0 |
| 20260503025009 | 47 | 247 | 1.0 | 2.0 | 0.00 | 0.06 | 0.06 | 100 | 1008.9 |
| 20260503024509 | 47 | 262 | 1.0 | 1.0 | 0.00 | 0.06 | 0.06 | 100 | 1008.9 |
| 20260503024010 | 47 | 255 | 0.0 | 1.0 | 0.00 | 0.06 | 0.06 | 100 | 1008.7 |
| 20260503023509 | 47 | 277 | 0.0 | 1.0 | 0.00 | 0.06 | 0.06 | 100 | 1008.6 |
| 20260503023010 | 47 | 286 | 0.0 | 0.0 | 0.00 | 0.06 | 0.06 | 100 | 1008.8 |
| 20260503022510 | 47 | 336 | 0.0 | 1.0 | 0.00 | 0.06 | 0.06 | 100 | 1008.8 |